sat.trackr.live / text

‹ back to catalog

2023-117C

NORAD 57582 · 2023-117C

PAYLOAD ACTIVE UNKNOWN

§ Identity

Operator
Country
PRC
Launch date
2023-08-10
Launch site
JSC
Launch vehicle
Mass (kg)
RCS (m²)

External: N2YO · Heavens-Above · Gunter

§ Orbital elements

Epoch: 2026-05-25T05:26:08.484576Z

Period
93.54 min
Inclination
97.4069°
Eccentricity
0.0005118
Mean motion
15.39500335 rev/d
Perigee alt
444.1 km
Apogee alt
451.1 km
Semi-major
6,825.7 km
B*
5.7396e-4
RAAN
225.9620°
Arg perigee
323.6899°
Mean anomaly
36.3998°
Rev number
15,503

§ Raw data

2023-117C1 57582U 23117C   26145.22648709  .00022491  00000+0  57396-3 0  99972 57582  97.4069 225.9620 0005118 323.6899  36.3998 15.39500335155031

JSON: /api/v1/satellites/57582 · /tle

For live sub-satellite position, see the globe view (requires WebGL).

§ Visibility from observer

Set your observer location to see the next 7 days of passes ≥ 10°. The values pass through the URL so the page stays shareable.

No JS? Fill the form by hand. The geolocation button needs JavaScript.

§ Radio — SatNOGS DB

ModeDescriptionDownlinkUplink
FSK Mode U - Transmitter 400.450 MHz

1 transmitter · refreshed weekly from db.satnogs.org